THOR ABLESTAR DEB, 480

Orbit data source: Space-Track

THOR ABLESTAR DEB, 480 is space debris in LEO originally from a launch on Thu, 29 Jun 1961 UTC launched from the Air Force Eastern Test Range (AFETR). Debris objects in space refer to the collection of defunct objects orbiting the Earth. Examples of debris include non-operational satellites, rocket bodies, and fragments generated from explosions, collisions, or faulty payload assembly.

Loading next visibility...
THOR ABLESTAR DEB details
Identifier
480, 1961-015FS
Orbit
LEO
Last TLE update1 day ago
Origin
Flag of USUSAF SSD (US)
ManufacturerUnknown
MissionSpacecraft
Bus & MotorUnknown
MassUnknown
Launch date (UTC)
1961-06-29 (64 years ago)
Launch vehicleUnknown
Launch site
Air Force Eastern Test Range (AFETR)
Object type
Payload
Rocket body
Debris
Shape & HBRUnknown
Radar Cross SectionSmall (<0.1 m²)

Expand to show TLE details & history

TLE from 1 day ago
0 THOR ABLESTAR DEB
1 00480U 61015FS  25014.41124350  .00002246  00000-0  72528-3 0  9998
2 00480  66.2385  28.9343 0072311 113.4455 247.4268 14.39569996280060
Epoch: 2025-01-14T09:52Z
Definitive object data (Epoch: 2025-01-14T09:52:11.438Z)
Latitude-0°
Longitude126.76832°
Altitude782.133 km
Speed7.453 km/s
True Right ascension01h 55m 44s
True Declination0° 00' 00"
Sunlit
Object was in daylight at TLE epoch
Visualization TLE readout
Latitude-58.16324°
Longitude-11.13927°
Altitude817.894 km
Speed7.425 km/s
Apparent Right ascension20h 23m 34s
Apparent Declination-59° 33' 05"
Sunlit
Object is in daylight
Visualization observer readout
Local Sidereal Time11:01:17
Azimuth141.871° SSE
Elevation-58.584°
Doppler factor1
Orbital elements
Apogee altitude809.946 km
Perigee altitude706.737 km
Semi-major axis7,136.479 km
Eccentricity0.0072311
Inclination66.2385°
RAAN28.9343°
Arg. of periapsis113.4455°
True anomaly246.66433°
Mean anomaly247.4268°
Eccentric anomaly247.0453°
Mean motion3.60012 °/min
BSTAR0.00072528
Orbital period100 mins
Loading maneuver chart data...

THOR ABLESTAR DEB Visibility forecast

Observer location: undefined°, undefined

Span
Click to sort rows by Start time (UTC) header in descending order
Start Az.
Max El. time (UTC)
Max El. Az.
Max El.
End time (UTC)
End Az.
9 mins2025-01-15 11:25:15.729Z333.087° NNW2025-01-15 11:30:15.729Z101.589° ESE43.796°2025-01-15 11:34:15.729Z145.743° SSE
8 mins2025-01-16 02:01:15.729Z194.958° SSW2025-01-16 02:05:15.729Z106.865° ESE42.277°2025-01-16 02:09:15.729Z37.224° NE
5 mins2025-01-16 03:46:15.729Z284.485° WNW2025-01-16 03:48:15.729Z312.72° NW17.837°2025-01-16 03:51:15.729Z353.309° N
|